Location: Cudham
(51.3000°N, 0.0667°E)
Time: 23:18:41
(UTC+00:00)

Okean O Rocket - Pass Details

Date: 15 May 2026
Orbit: 614 x 633 km, 98.0° (Epoch: 6 June)

Event Time Altitude Azimuth Distance (km) Brightness Sun altitude
Exits shadow 21:29:45 - 196° (SSW) 2,321 4.1 -12.7°
Reaches altitude 10° 21:30:42 10° 202° (SSW) 1,971 3.8 -12.8°
Maximum altitude 21:34:30 31° 265° (W) 1,096 3.1 -13.1°
Drops below altitude 10° 21:38:21 10° 327° (NNW) 1,987 5.6 -13.5°
Sets 21:40:45 0° 338° (NNW) 2,899 6.8 -13.7°
